User: anonymous   Login
Location: Sungai Apap
(2.6167°N, 113.3833°E)
Time: 08:46:51
(UTC+00:00)
Language:

Cosmos 1892 Rocket - Orbit

View from above orbital plane
View from above orbital plane
View from above satellite
View from above satellite

Ground track
Ground track

The orbit data is extracted from the following two-line orbital elements,

1 18422U 87088B   24196.72637042  .00000788  00000-0  91136-4 0  9998
2 18422  82.5112 273.9698 0018666 198.6424 161.4110 14.84205113963835
Epoch (UTC): 14 July 2024 17:25:58
Eccentricity: 0.0018666
inclination: 82.5112°
perigee height: 603 km
apogee height: 629 km
right ascension of ascending node: 273.9698°
argument of perigee: 198.6424°
revolutions per day: 14.84205113
mean anomaly at epoch: 161.4110°
orbit number at epoch: 96383

The dashed part of the orbit path shows where the satellite is in the earth's shadow,  

DLR